Tracking 30970 objects as of 3-Jul-2025
HD Live streaming from Space Station
objects crossing your sky now

CRRES DEB (CANISTER)

Track CRRES DEB (CANISTER) now!
10-day predictions


NORAD ID: 21948
Int'l Code: 1990-065S
Perigee: 314.7 km
Apogee: 22,324.6 km
Inclination: 17.9 °
Period: 390.3 minutes
Semi major axis: 17690 km
RCS: 0.1262 m2 (medium)
Launch date: July 25, 1990
Source: United States (US)
Launch site: AIR FORCE EASTERN TEST RANGE (AFETR)

Note: This is SATELLITE DEBRIS
Your satellite tracking list
STARLINK-6346
Track 1 satellite(s)




NASA's NSSDC Master Catalog

Two Line Element Set (TLE):
1 21948U 90065S   25181.35677210  .00000966  00000-0  43564-3 0  9998
2 21948  17.8622 319.2687 6220760  27.7289 354.7220  3.68966702350565
Source of the keplerian elements: AFSPC